Weather History for KSSI - October, 2013

Change the Weather History Date:

Friday, October 18, 2013

  Actual Average Record
Temperature  
Mean Temperature 78 °F 70 °F  
Max Temperature 85 °F 77 °F 89 °F (2007)
Min Temperature 70 °F 62 °F 43 °F (1977)
Degree Days  
Heating Degree Days 0 1  
Month to date heating degree days 0 8  
Since 1 July heating degree days 0 8  
Cooling Degree Days 13 5  
Month to date cooling degree days 148 136  
Year to date cooling degree days 2505 2507  
Growing Degree Days 26 (Base 50)    
Moisture  
Dew Point 70 °F    
Average Humidity 78    
Maximum Humidity 97    
Minimum Humidity 58    
Precipitation  
Precipitation 0.00 in 0.15 in 4.89 in (1950)
Month to date precipitation 0.50 3.10  
Year to date precipitation 46.33 38.97  
Snow  
Snow 0.00 in - 0.00 in ()
Month to date snowfall 0.0  
Since 1 July snowfall 0.0  
Since 1 September snowfall 0.0  
Snow Depth 0.00 in    
Sea Level Pressure  
Sea Level Pressure 29.95 in    
Wind  
Wind Speed 6 mph (SSW)    
Max Wind Speed 12 mph    
Max Gust Speed 17 mph    
Visibility 10 miles    
Events      
T = Trace of Precipitation, MM = Missing Value Source: NWS Daily Summary

Daily Weather History Graph

Daily Weather History Graph

Search for Another Location

Airport or City:

Trip Planner

Search our weather history database for the weather conditions in past years. The results will help you decide how hot, cold, wet, or windy it might be!

Date:

Astronomy

Oct. 18, 2013 Rise Set
Actual Time 7:30 AM EDT 6:50 PM EDT
Civil Twilight 7:06 AM EDT 7:14 PM EDT
Nautical Twilight 6:37 AM EDT 7:42 PM EDT
Astronomical Twilight 6:09 AM EDT 8:10 PM EDT
Moon 6:40 PM EDT (10/18) 7:04 AM EDT (10/18)
Length of Visible Light 12h 08m
Length of Day
11h 19m
Full, 100% of the Moon is Illuminated
Oct 18
Full
Oct 18
Full
Oct 26
Last Quarter
Nov 3
New
Nov 10
First Quarter

Hourly Weather History & Observations

Time (EDT) Temp. Heat Index Dew Point Humidity Pressure Visibility Wind Dir Wind Speed Gust Speed Precip Events Conditions
12:53 AM 73.9 °F - 70.0 °F 87% 29.93 in 10.0 mi SW 3.5 mph - N/A   Partly Cloudy
1:53 AM 73.9 °F - 71.1 °F 91% 29.92 in 10.0 mi SW 3.5 mph - N/A   Clear
2:53 AM 73.0 °F - 70.0 °F 90% 29.92 in 10.0 mi SW 5.8 mph - N/A   Clear
3:53 AM 72.0 °F - 70.0 °F 93% 29.92 in 10.0 mi SW 4.6 mph - N/A   Clear
4:53 AM 71.1 °F - 69.1 °F 93% 29.92 in 10.0 mi WSW 4.6 mph - N/A   Clear
5:53 AM 70.0 °F - 68.0 °F 93% 29.94 in 10.0 mi WSW 4.6 mph - N/A   Clear
6:53 AM 70.0 °F - 68.0 °F 93% 29.95 in 10.0 mi SW 5.8 mph - N/A   Clear
7:53 AM 71.1 °F - 68.0 °F 90% 29.97 in 10.0 mi WSW 6.9 mph - N/A   Clear
8:53 AM 73.0 °F - 69.1 °F 87% 29.99 in 10.0 mi West 6.9 mph - N/A   Clear
9:53 AM 75.9 °F - 69.1 °F 79% 30.00 in 10.0 mi SW 6.9 mph - N/A   Clear
10:53 AM 78.1 °F - 69.1 °F 74% 30.00 in 10.0 mi WSW 8.1 mph - N/A   Clear
11:53 AM 81.0 °F 83.3 °F 66.9 °F 62% 29.99 in 10.0 mi SW 6.9 mph 17.3 mph N/A   Clear
12:53 PM 82.9 °F 85.0 °F 66.0 °F 56% 29.98 in 10.0 mi SW 6.9 mph - N/A   Clear
1:53 PM 82.0 °F 85.5 °F 69.1 °F 65% 29.95 in 10.0 mi SE 6.9 mph - N/A   Partly Cloudy
2:53 PM 82.0 °F 85.5 °F 69.1 °F 65% 29.93 in 10.0 mi SSE 5.8 mph - N/A   Scattered Clouds
3:53 PM 82.0 °F 85.9 °F 70.0 °F 67% 29.92 in 10.0 mi SE 8.1 mph - N/A   Clear
4:53 PM 80.1 °F 83.6 °F 71.1 °F 74% 29.92 in 10.0 mi SE 9.2 mph - N/A   Clear
5:53 PM 78.1 °F - 73.0 °F 84% 29.93 in 10.0 mi SE 10.4 mph - N/A   Clear
6:53 PM 77.0 °F - 73.0 °F 88% 29.94 in 10.0 mi SE 4.6 mph - N/A   Clear
7:53 PM 77.0 °F - 73.9 °F 90% 29.95 in 10.0 mi SSE 4.6 mph - N/A   Mostly Cloudy
8:53 PM 77.0 °F - 73.9 °F 90% 29.95 in 10.0 mi SE 4.6 mph - N/A   Mostly Cloudy
9:53 PM 77.0 °F - 73.0 °F 88% 29.96 in 10.0 mi SSE 4.6 mph - N/A   Mostly Cloudy
10:53 PM 75.9 °F - 73.0 °F 91% 29.97 in 10.0 mi SSE 5.8 mph - N/A   Scattered Clouds
11:53 PM 75.9 °F - 73.9 °F 94% 29.96 in 10.0 mi SSE 4.6 mph - N/A   Overcast